THOR ABLESTAR DEB, 130

Orbit data source: Space-Track

THOR ABLESTAR DEB, 130 is space debris in LEO originally from a launch on Thu, 29 Jun 1961 UTC launched from the Air Force Eastern Test Range (AFETR). Debris objects in space refer to the collection of defunct objects orbiting the Earth. Examples of debris include non-operational satellites, rocket bodies, and fragments generated from explosions, collisions, or faulty payload assembly.

Loading next visibility...
Identifier
130, 1961-015Q
Orbit
LEO
Country
Flag of USUS
Related business
Manufacturer
Unknown
Mission
Spacecraft
Bus & Motor
Unknown
Mass
Unknown
Launch date (UTC)
1961-06-29 (65 years ago)
Launch vehicle
Unknown
Launch site
Air Force Eastern Test Range (AFETR)
Object type
Payload
Rocket body
Debris
Shape & HBR
Unknown shape, 0.5 m
Radar Cross Section
Medium (>0.1 m² and <1 m²)

Expand to show TLE details & history
Last TLE update: 9 hours ago

TLE from 9 hours ago
0 THOR ABLESTAR DEB
1 00130U 61015Q   26036.24387106  .00000058  00000-0  91387-4 0  9990
2 00130  66.7686 218.9796 0083301  18.0581 342.3430 13.99393284292996
Epoch: 2026-02-05T05:51Z
TLE epoch observation values (Epoch: 2026-02-05T05:51:10.459Z)
Latitude
0.00003°
Longitude
-4.21285°
Altitude
840.281 km
Speed
7.462 km/s
True Right ascension
14h 35m 55s
True Declination
0° 00' 00"
Sunlit
Object was in daylight at epoch
Visualization orbit readout
Latitude
Unknown
Longitude
Unknown
Altitude
Unknown
Speed
Unknown
Apparent Right ascension
Unknown
Apparent Declination
Unknown
Sunlit
N/A
Visualization observer readout
Local Sidereal Time
16:49:09
Azimuth
Unknown
Elevation
Unknown
Doppler factor
Unknown
Orbital elements
Apogee altitude
954.867 km
Perigee altitude
833.707 km
Semi-major axis
7,272.424 km
Eccentricity
0.00833
Inclination
66.7686°
RAAN
218.9796°
Arg. of periapsis
18.0581°
True anomaly
342.05057°
Mean anomaly
342.343°
Eccentric anomaly
342.19707°
Mean motion
3.49965 °/min
Orbital period
102.87 mins
BSTAR
0.000091387
Loading maneuver chart data...
Computing Atmospheric mass density...

Documentation

Showing up to 5 results
|